Torna al catalogo

LOPEN

AttivoComunicazioniSSO
NORAD 60473·PAYLOAD·🇺🇸 United States

Lanciato Aug 16, 2024 da Vandenberg Space Force Base

Loading…

Prossimi Passaggi (prossime 24 ore)

TLE

AggiornatoSource: Space-Track

Epoca: Sep 13, 2026, 18:34 UTC

1 60473U 24149F   26256.77376258  .00012550  00000-0  29602-3 0  9991
2 60473  97.3731 340.9614 0000401  24.8432 335.2834 15.42033905115903

Traccia LOPEN in tempo reale con AllMySat

Download on the App Store